Niagara Falls, NY

7:43 PM EST on November 13, 2019 (GMT -0500)
Niagara Falls International

Weather History for KIAG - October, 2019

Change the Weather History Date:

Sunday, October 20, 2019

  Actual Average Record
Temperature  
Mean Temperature 52 °F -  
Max Temperature 66 °F 55 °F 69 °F (2017)
Min Temperature 37 °F 39 °F 24 °F (1992)
Degree Days  
Heating Degree Days 14    
Growing Degree Days 2 (Base 50)    
Moisture  
Dew Point 43 °F    
Average Humidity 78    
Maximum Humidity 96    
Minimum Humidity 48    
Precipitation  
Precipitation 0.00 in - - ()
Sea Level Pressure  
Sea Level Pressure 29.93 in    
Wind  
Wind Speed 3 mph (SSE)    
Max Wind Speed 6 mph    
Max Gust Speed -    
Visibility 10 miles    
Events      
Averages and records for this station are not official NWS values.
T = Trace of Precipitation, MM = Missing Value Source: NWS Daily Summary

Daily Weather History Graph

Daily Weather History Graph

Search for Another Location

Airport or City:

Astronomy

Oct. 20, 2019 Rise Set
Actual Time 7:35 AM EDT 6:25 PM EDT
Civil Twilight 7:06 AM EDT 6:54 PM EDT
Nautical Twilight 6:33 AM EDT 7:27 PM EDT
Astronomical Twilight 6:00 AM EDT 8:00 PM EDT
Moon 11:26 PM EDT (10/20) 2:08 PM EDT (10/20)
Length of Visible Light 11h 47m
Length of Day
10h 50m
Waning Gibbous, 59% of the Moon is Illuminated
Oct 20
Waning Gibbous
Oct 21
Last Quarter
Oct 27
New
Nov 4
First Quarter
Nov 12
Full

Hourly Weather History & Observations

Time (EDT) Temp. Windchill Dew Point Humidity Pressure Visibility Wind Dir Wind Speed Gust Speed Precip Events Conditions
12:53 AM 41.0 °F 39.0 °F 39.0 °F 93% 29.91 in 5.0 mi ESE 3.5 mph - N/A   Clear
1:53 AM 42.1 °F 40.2 °F 39.9 °F 92% 29.91 in 10.0 mi ESE 3.5 mph - N/A   Clear
2:53 AM 39.9 °F 36.7 °F 37.9 °F 93% 29.89 in 10.0 mi SE 4.6 mph - N/A   Clear
3:53 AM 39.9 °F - 37.0 °F 89% 29.88 in 10.0 mi Calm Calm - N/A   Clear
4:53 AM 39.9 °F - 37.0 °F 89% 29.88 in 10.0 mi Calm Calm - N/A   Clear
5:53 AM 37.9 °F - 36.0 °F 93% 29.89 in 10.0 mi Calm Calm - N/A   Clear
6:53 AM 37.9 °F - 36.0 °F 93% 29.90 in 10.0 mi Calm Calm - N/A   Clear
7:53 AM 37.0 °F - 36.0 °F 96% 29.91 in 10.0 mi Calm Calm - N/A   Clear
8:53 AM 39.0 °F - 37.0 °F 93% 29.92 in 10.0 mi Calm Calm - N/A   Clear
9:53 AM 48.0 °F - 44.1 °F 86% 29.91 in 10.0 mi Calm Calm - N/A   Clear
10:53 AM 55.9 °F - 48.9 °F 77% 29.92 in 10.0 mi SW 4.6 mph - N/A   Clear
11:53 AM 59.0 °F - 48.0 °F 67% 29.92 in 10.0 mi SW 5.8 mph - N/A   Clear
12:53 PM 62.1 °F - 48.0 °F 60% 29.92 in 10.0 mi SW 5.8 mph - N/A   Clear
1:53 PM 64.9 °F - 46.9 °F 52% 29.91 in 10.0 mi SSW 5.8 mph - N/A   Clear
2:53 PM 66.0 °F - 46.0 °F 48% 29.91 in 10.0 mi SSW 4.6 mph - N/A   Clear
3:53 PM 64.0 °F - 44.1 °F 48% 29.91 in 10.0 mi SSW 4.6 mph - N/A   Clear
4:02 PM 64.4 °F - 44.6 °F 49% 29.90 in 10.0 mi SSW 4.6 mph - N/A   Clear
4:53 PM 64.9 °F - 45.0 °F 48% 29.93 in 10.0 mi South 4.6 mph - N/A   Clear
5:53 PM 60.1 °F - 50.0 °F 69% 29.94 in 10.0 mi NE 5.8 mph - N/A   Clear
6:53 PM 55.0 °F - 48.9 °F 80% 29.96 in 10.0 mi NNE 4.6 mph - N/A   Mostly Cloudy
7:53 PM 52.0 °F - 46.9 °F 83% 29.98 in 10.0 mi Calm Calm - N/A   Clear
8:53 PM 50.0 °F - 46.0 °F 86% 29.98 in 10.0 mi East 3.5 mph - N/A   Clear
9:53 PM 50.0 °F - 46.0 °F 86% 29.99 in 10.0 mi ENE 3.5 mph - N/A   Clear
10:53 PM 46.0 °F 44.8 °F 43.0 °F 89% 30.01 in 10.0 mi ENE 3.5 mph - N/A   Clear
11:53 PM 44.1 °F - 43.0 °F 96% 30.01 in 9.0 mi Calm Calm - N/A   Clear